This demonstration page uses our WeatherBlox Daily Observations layout. Learn more.

39.92423, -83.80882

Hourly Observations for July 8, 2018

Temp ( °F °C ) Dew Point ( °F °C ) Humidity (%) Winds ( mph kmh ) Pressure ( in mb ) Visibility ( mi km ) Precip ( " mm )
12:56 am 00:56 Hazy 58 14.4 53 11.7 84 84 E 3 6 30.29 1026 5 8.0467 0 0
1:56 am 01:56 Clear 60 15.6 52 11.1 75 75 Calm 30.28 1026 10 16.0934 0 0
2:56 am 02:56 Clear 56 13.3 52 11.1 87 87 ENE 3 6 30.28 1025 10 16.0934 0 0
3:56 am 03:56 Clear 55 12.8 51 10.6 87 87 Calm 30.27 1025 10 16.0934 0 0
4:56 am 04:56 Clear 55 12.8 52 11.1 90 90 Calm 30.28 1025 10 16.0934 0 0
5:56 am 05:56 Clear 52 11.1 50 10 93 93 ENE 3 6 30.29 1026 10 16.0934 0 0
6:56 am 06:56 Sunny 53 11.7 52 11.1 96 96 ENE 5 7 30.3 1026 10 16.0934 0 0
7:56 am 07:56 Sunny 60 15.6 57 13.9 90 90 Calm 30.32 1027 10 16.0934 0 0
8:56 am 08:56 Sunny 67 19.4 59 15 76 76 ENE 7 11 30.32 1027 10 16.0934 0 0
9:56 am 09:56 Sunny 71 21.7 59 15 66 66 E 3 6 30.33 1027 10 16.0934 0 0
10:56 am 10:56 Sunny 75 23.9 58 14.4 55 55 VRB 3 6 30.33 1027 10 16.0934 0 0
11:56 am 11:56 Sunny 78 25.6 58 14.4 50 50 Calm 30.31 1027 10 16.0934 0 0
12:56 pm 12:56 Sunny 78 25.6 57 13.9 48 48 E 5 7 30.3 1026 10 16.0934 0 0
1:56 pm 13:56 Sunny 78 25.6 59 15 52 52 E 5 7 30.29 1026 10 16.0934 0 0
2:56 pm 14:56 Sunny 80 26.7 60 15.6 51 51 Calm 30.28 1025 10 16.0934 0 0
3:56 pm 15:56 Sunny 82 27.8 60 15.6 47 47 VRB 3 6 30.27 1025 10 16.0934 0 0
4:56 pm 16:56 Sunny 83 28.3 61 16.1 48 48 NNE 5 7 30.26 1025 10 16.0934 0 0
5:56 pm 17:56 Sunny 83 28.3 59 15 44 44 Calm 30.26 1025 10 16.0934 0 0
6:56 pm 18:56 Sunny 81 27.2 63 17.2 54 54 ESE 7 11 30.25 1024 10 16.0934 0 0
7:56 pm 19:56 Sunny 79 26.1 63 17.2 58 58 SE 5 7 30.24 1024 10 16.0934 0 0
8:56 pm 20:56 Sunny 73 22.8 64 17.8 74 74 ESE 3 6 30.25 1024 10 16.0934 0 0
9:56 pm 21:56 Clear 70 21.1 62 16.7 76 76 ESE 3 6 30.25 1024 10 16.0934 0 0
10:56 pm 22:56 Clear 67 19.4 61 16.1 81 81 SSE 6 9 30.26 1025 10 16.0934 0 0
11:56 pm 23:56 Clear 64 17.8 60 15.6 87 87 SE 3 6 30.25 1025 10 16.0934 0 0

Powered by AerisWeather